Weather History for Marathon, FL

Change the Weather History Date:

Monday, September 2, 2013

  Actual Average Record
Temperature  
Mean Temperature 87 °F 85 °F  
Max Temperature 92 °F 90 °F 94 °F (2007)
Min Temperature 81 °F 79 °F 77 °F (1999)
Degree Days  
Heating Degree Days 0 0  
Month to date heating degree days 0 0  
Since 1 July heating degree days 0 0  
Cooling Degree Days 22 20  
Month to date cooling degree days 44 40  
Year to date cooling degree days 3765 3426  
Growing Degree Days 36 (Base 50)    
Moisture  
Dew Point 75 °F    
Average Humidity 74    
Maximum Humidity 79    
Minimum Humidity 68    
Precipitation  
Precipitation T in 0.26 in 0.68 in (2005)
Month to date precipitation T 0.51  
Year to date precipitation 39.23 29.33  
Snow  
Snow 0.00 in - - ()
Month to date snowfall 0.0  
Since 1 July snowfall 0.0  
Since 1 September snowfall 0.0  
Snow Depth 0.00 in    
Sea Level Pressure  
Sea Level Pressure 30.00 in    
Wind  
Wind Speed 4 mph (ESE)    
Max Wind Speed 12 mph    
Max Gust Speed 15 mph    
Visibility 10 miles    
Events Thunderstorm    
T = Trace of Precipitation, MM = Missing Value Source: NWS Daily Summary

Daily Weather History Graph

Daily Weather History Graph

Search for Another Location

Airport:

Trip Planner

Search our weather history database for the weather conditions in past years. The results will help you decide how hot, cold, wet, or windy it might be!

Date:

Astronomy

Sep. 02, 2013 Rise Set
Actual Time 7:05 AM EDT 7:41 PM EDT
Civil Twilight 6:42 AM EDT 8:04 PM EDT
Nautical Twilight 6:15 AM EDT 8:31 PM EDT
Astronomical Twilight 5:47 AM EDT 8:59 PM EDT
Moon 4:32 AM EDT (9/2) 5:46 PM EDT (9/2)
Length of Visible Light 13h 21m
Length of Day
12h 35m
Waning Crescent, 8% of the Moon is Illuminated
Sep 2
Waning Crescent
Sep 5
New
Sep 12
First Quarter
Sep 19
Full
Sep 26
Last Quarter

Hourly Weather History & Observations

Time (EDT) Temp. Heat Index Dew Point Humidity Pressure Visibility Wind Dir Wind Speed Gust Speed Precip Events Conditions
12:53 AM 84.0 °F 91.9 °F 75.0 °F 74% 30.00 in 10.0 mi SSE 4.6 mph - N/A   Clear
1:53 AM 84.0 °F 91.9 °F 75.0 °F 74% 29.97 in 10.0 mi SE 4.6 mph - N/A   Clear
2:53 AM 84.0 °F 91.9 °F 75.0 °F 74% 29.96 in 10.0 mi SSE 4.6 mph - N/A   Partly Cloudy
3:53 AM 84.0 °F 91.2 °F 73.9 °F 72% 29.95 in 10.0 mi South 4.6 mph - N/A   Partly Cloudy
4:53 AM 82.9 °F 90.2 °F 75.0 °F 77% 29.95 in 10.0 mi Calm Calm - N/A   Partly Cloudy
5:53 AM 82.0 °F 88.6 °F 75.0 °F 79% 29.96 in 10.0 mi Calm Calm - N/A   Clear
6:53 AM 82.0 °F 88.6 °F 75.0 °F 79% 29.98 in 10.0 mi Calm Calm - N/A   Clear
7:53 AM 84.0 °F 92.6 °F 75.9 °F 76% 30.00 in 10.0 mi Calm Calm - N/A   Scattered Clouds
8:53 AM 87.1 °F 97.3 °F 75.9 °F 69% 30.01 in 10.0 mi South 4.6 mph - N/A   Mostly Cloudy
9:08 AM 86.0 °F 96.9 °F 77.0 °F 74% 30.02 in 10.0 mi SSW 4.6 mph - N/A   Mostly Cloudy
9:16 AM 86.0 °F 96.9 °F 77.0 °F 74% 30.02 in 10.0 mi SSW 3.5 mph - N/A   Mostly Cloudy
9:23 AM 87.8 °F 102.5 °F 78.8 °F 75% 30.02 in 10.0 mi SSW 3.5 mph - N/A   Scattered Clouds
9:53 AM 88.0 °F 100.2 °F 77.0 °F 70% 30.03 in 10.0 mi South 3.5 mph - N/A   Clear
10:53 AM 88.0 °F 100.2 °F 77.0 °F 70% 30.04 in 10.0 mi Variable 4.6 mph - N/A   Clear
11:28 AM 87.8 °F 95.6 °F 73.4 °F 62% 30.04 in 10.0 mi Calm Calm - N/A Thunderstorm Thunderstorm
11:41 AM 89.6 °F 104.7 °F 78.8 °F 70% 30.04 in 10.0 mi South 5.8 mph - N/A   Scattered Clouds
11:53 AM 88.0 °F 100.2 °F 77.0 °F 70% 30.04 in 10.0 mi Variable 3.5 mph - N/A   Mostly Cloudy
12:12 PM 89.6 °F 102.2 °F 77.0 °F 66% 30.04 in 10.0 mi Variable 3.5 mph - N/A Thunderstorm Thunderstorm
12:32 PM 89.6 °F 102.2 °F 77.0 °F 66% 30.04 in 10.0 mi Variable 5.8 mph - N/A Thunderstorm Thunderstorm
12:53 PM 87.1 °F 95.4 °F 73.9 °F 65% 30.04 in 10.0 mi Calm Calm - N/A Thunderstorm Thunderstorm
1:04 PM 84.2 °F 90.9 °F 73.4 °F 70% 30.04 in 10.0 mi Calm Calm - N/A   Mostly Cloudy
1:53 PM 88.0 °F 95.6 °F 73.0 °F 61% 30.02 in 10.0 mi Calm Calm - N/A   Overcast
2:40 PM 87.8 °F 97.6 °F 75.2 °F 66% 30.00 in 10.0 mi Calm Calm - N/A   Overcast
2:53 PM 86.0 °F 95.1 °F 75.0 °F 70% 30.00 in 10.0 mi Calm Calm - N/A   Overcast
3:02 PM 86.0 °F 95.1 °F 75.2 °F 70% 30.00 in 10.0 mi NNW 3.5 mph - N/A   Overcast
3:49 PM 82.4 °F 88.2 °F 73.4 °F 74% 29.99 in 10.0 mi NW 5.8 mph - 0.00 in   Overcast
3:53 PM 82.9 °F 89.4 °F 73.9 °F 74% 29.99 in 10.0 mi NNW 4.6 mph - 0.00 in   Overcast
4:53 PM 86.0 °F 95.1 °F 75.0 °F 70% 29.97 in 10.0 mi NNE 6.9 mph - N/A   Clear
5:53 PM 86.0 °F 95.1 °F 75.0 °F 70% 29.96 in 10.0 mi NE 8.1 mph - N/A   Clear
6:53 PM 84.9 °F 92.1 °F 73.9 °F 69% 29.96 in 10.0 mi NNE 9.2 mph - N/A   Partly Cloudy
7:53 PM 84.9 °F 91.4 °F 73.0 °F 67% 29.97 in 10.0 mi NE 9.2 mph - N/A   Clear
8:53 PM 84.0 °F 90.2 °F 73.0 °F 69% 29.99 in 10.0 mi East 5.8 mph - N/A   Clear
9:53 PM 84.0 °F 90.2 °F 73.0 °F 69% 30.00 in 10.0 mi East 6.9 mph - N/A   Clear
10:53 PM 82.9 °F 89.4 °F 73.9 °F 74% 30.00 in 10.0 mi East 6.9 mph - N/A   Clear
11:53 PM 82.9 °F 90.2 °F 75.0 °F 77% 30.00 in 10.0 mi East 4.6 mph - N/A   Clear